Regional Weather Roundup
Issued by NWS Goodland, KS

Home | Current Version | Previous Version | Graphics & Text | Print | Product List | Glossary On
Versions: 1 2 3 4 5 6 7 8 9 10 11 12 13 14 15 16 17 18 19 20 21 22 23 24 25 26 27 28 29 30 31 32 33 34 35 36 37 38 39 40 41 42 43 44 45 46 47 48 49 50
000
ASUS43 KGLD 161708
RWRGLD

GOODLAND FORECAST AREA HOURLY WEATHER ROUNDUP
NATIONAL WEATHER SERVICE GOODLAND KS
1000 AM MST MON JAN 16 2017

...OFFICIAL OBSERVATIONS...

CITY           SKY/WX    TMP DP  RH WIND       PRES   REMARKS
GOODLAND KS    LGT SNOW  32  31  96 N16G24    29.93R FOG
HILL CITY KS   LGT RAIN  33  32  96 N14       29.92R
IMPERIAL NEB   LGT RAIN  33  31  92 N17       29.97R FOG
MCCOOK NEB     LGT RAIN  33  33 100 N8        29.96R FOG
AKRON CO       SNOW      28  26  92 N24       30.02R VSB 1/2 WCI  14
BURLINGTON CO  CLOUDY    32  30  92 NW17      29.95R FOG
LIMON CO       LGT SNOW  29  27  92 N26G32    30.00R FOG     WCI  14
$$

...UNOFFICIAL OBSERVATIONS...

CITY           SKY/WX    TMP DP  RH WIND       PRES   REMARKS
LENORA KS        N/A     32  32 100 CALM        N/A
NORTON KS      LGT SNOW  34  28  80 N3        29.92R
SHARON SPRINGS   N/A     32  32 100 CALM        N/A
TRENTON NEB      N/A     32  32 100 CALM        N/A
KIT CARSON CO    N/A     31  28  89 CALM        N/A
YUMA CO        LGT SNOW  30  30 100 N20       30.00R WCI  18
$$



USA.gov is the U.S. government's official web portal to all federal, state and local government web resources and services.